Location: Zagreb
(45.8000°N, 16.0000°E)
Time: 10:32:27
(UTC+01:00)

Transit 4A - Visible Passes

Search period start: 28 January 2022 00:00
Search period end: 07 February 2022 00:00
Orbit: 863 x 981 km, 66.8° (Epoch: 27 January)

Date Brightness Start Highest point End Pass type
(mag) Time Alt. Az. Time Alt. Az. Time Alt. Az.
28 Jan 10.9 04:55:51 10° SE 04:58:26 13° E 05:01:03 10° ENE visible
28 Jan 8.2 06:37:41 10° SSW 06:43:42 77° ESE 06:49:56 10° NE visible
28 Jan 11.5 17:27:47 10° W 17:29:44 11° W 17:31:40 10° WSW visible
29 Jan 10.5 05:03:09 10° SSE 05:07:22 20° ESE 05:11:39 10° ENE visible
29 Jan 7.9 06:46:56 10° SW 06:52:59 78° NW 06:59:17 10° NNE visible
30 Jan 9.8 05:11:16 10° SSE 05:16:21 29° ESE 05:21:35 10° NE visible
31 Jan 9.1 05:19:48 10° S 05:25:25 42° ESE 05:31:14 10° NE visible
01 Feb 8.4 05:28:39 10° SSW 05:34:34 61° ESE 05:40:44 10° NE visible
02 Feb 10.5 03:55:06 10° SE 03:58:25 15° ESE 04:01:49 10° ENE visible
02 Feb 7.9 05:37:45 10° SSW 05:43:49 86° ESE 05:50:07 10° NE visible
03 Feb 10.0 04:02:47 10° SSE 04:07:23 23° ESE 04:12:04 10° ENE visible
03 Feb 7.9 05:47:05 10° SW 05:53:08 69° NW 05:59:25 10° NNE visible
04 Feb 9.4 04:12:12 15° SSE 04:16:24 33° ESE 04:21:53 10° NE visible
04 Feb 8.1 05:56:37 10° SW 06:02:32 51° NW 06:08:40 10° NNE visible
05 Feb 8.7 04:22:41 29° S 04:25:29 48° ESE 04:31:28 10° NE visible
05 Feb 8.5 06:06:23 10° WSW 06:12:02 38° NW 06:17:53 10° NNE visible
06 Feb 10.5 02:49:13 11° ESE 02:49:31 11° E 02:51:19 10° E visible
06 Feb 8.1 04:32:47 45° S 04:34:40 69° ESE 04:40:55 10° NE visible
06 Feb 8.8 06:16:21 10° W 06:21:36 29° NW 06:27:03 10° NNE visible
